Tracking 29892 objects as of 21-Nov-2024
HD Live streaming from Space Station
objects crossing your sky now

STARLINK-3742

Track STARLINK-3742 now!
10-day predictions
STARLINK-3742 is classified as:


NORAD ID: 52303
Int'l Code: 2022-041AU
Perigee: 546.1 km
Apogee: 547.8 km
Inclination: 53.2 °
Period: 95.4 minutes
Semi major axis: 6917 km
RCS: Unknown
Launch date: April 21, 2022
Source: United States (US)
Launch site: AIR FORCE EASTERN TEST RANGE (AFETR)
Your satellite tracking list
Your tracking list is empty




NASA's NSSDC Master Catalog

Two Line Element Set (TLE):
1 52303U 22041AU  24325.31618284 -.00002011  00000-0 -10836-3 0  9998
2 52303  53.2157  68.6620 0001223  97.7679 262.3452 15.08823875144111
Source of the keplerian elements: AFSPC